Weather Roundup
Issued by NWS

Home | Current Version | Previous Version | Text Only | Print | Product List | Glossary On
Versions: 1 2 3 4 5 6 7 8 9 10 11 12 13 14 15 16 17 18 19 20 21 22 23 24 25 26 27 28 29 30 31 32 33 34 35 36 37 38 39 40 41 42 43 44 45 46 47 48 49 50
000
NZUS93 KARX 270310
HRRWXR

CURRENT HOURLY OBSERVATIONS ACROSS
MUCH OF THE UPPER MISSISSIPPI VALLEY
NATIONAL WEATHER SERVICE LA CROSSE WI
1000 PM CDT MON SEP 26 2016


...SOUTHEAST MINNESOTA...


CITY           SKY/WX    TMP DP  RH WIND       PRES   REMARKS
ROCHESTER      CLEAR     53  37  54 W10       29.91F
ROCHESTER/MAYO FAIR      56  34  43 W14G20    29.89F
WINONA         CLEAR     59  36  41 W9        29.86F
AUSTIN         CLEAR     54  36  50 W6        29.93S
ALBERT LEA     CLEAR     55  36  47 W7        29.95S
DODGE CENTER   PTCLDY    50  37  62 W10       29.91S
PRESTON        CLEAR     52  36  53 W12       29.91F
OWATONNA       CLEAR     54  36  50 W9        29.92S
FARIBAULT      CLEAR     55  37  50 W9        29.92S
$$

...ELSEWHERE IN MINNESOTA...


CITY           SKY/WX    TMP DP  RH WIND       PRES   REMARKS
MINNEAPOLIS    CLEAR     58  35  42 W14       29.87F
INTNL FALLS    LGT RAIN  50  47  89 NW14G25   29.71S
DULUTH         LGT RAIN  52  45  77 NW21G30   29.71F
RED WING       CLEAR     52  39  62 NW3       29.86S
REDWOOD FALLS  CLEAR     54  36  50 W12       29.96S
MANKATO        CLEAR     55  36  48 W10       29.94S
WORTHINGTON    CLEAR     50  36  58 W10       30.03S
FAIRMONT       CLEAR     55  36  48 W10       29.98S
$$

...SOUTHWEST WISCONSIN...


CITY           SKY/WX    TMP DP  RH WIND       PRES   REMARKS
LA CROSSE      CLEAR     61  37  41 W13       29.86F
PRAIRIE DU CHI CLEAR     60  33  36 SW10      29.90F
BOSCOBEL       CLEAR     53  40  61 SW5       29.90F
LONE ROCK      CLEAR     51  40  65 CALM      29.89F
PLATTEVILLE    CLEAR     52  40  63 SW7       29.93F
FORT MC COY    CLEAR     42  41  97 CALM      29.86F
CAMP DOUGLAS   CLEAR     52  38  59 W10       29.83F
MAUSTON-NEW LI CLEAR     55  37  50 W8        29.84S
VIROQUA        FAIR      53  35  49 W9        29.88F
WIS DELLS      CLEAR     51  37  57 SW8       29.85F
$$

...ELSEWHERE IN WISCONSIN...


CITY           SKY/WX    TMP DP  RH WIND       PRES   REMARKS
MILWAUKEE      CLEAR     59  38  45 W8        29.88S
MADISON        CLEAR     58  38  47 VRB5      29.87F
GREEN BAY      CLOUDY    55  42  61 SW9       29.77F
EAU CLAIRE     PTCLDY    52  39  61 W8        29.81F
BLACK RVR FLS  FAIR      40  40 100 CALM      29.83F
MEDFORD        CLOUDY    52  39  61 W8G21     29.77F
WAUSAU         CLOUDY    54  39  57 W13       29.75F
WIS RAPIDS     PTCLDY    52  41  66 W8        29.82F
MARSHFIELD     CLOUDY    53  39  59 W10       29.79F
RICE LAKE      CLOUDY    55  39  56 W8        29.81F
$$

...NORTHEAST IOWA...


CITY           SKY/WX    TMP DP  RH WIND       PRES   REMARKS
WATERLOO       CLEAR     56  39  53 W8        29.95F
DUBUQUE        CLEAR     49  41  74 SW6       29.95F
DECORAH        CLEAR     55  36  47 VRB7G15   29.91S
MASON CITY     CLEAR     50  37  61 W10       29.98S
CHARLES CITY   CLEAR     55  34  44 W9G15     29.95S
OELWEIN        CLEAR     50  41  71 SW8       29.96S
$$

...ELSEWHERE IN IOWA...


CITY           SKY/WX    TMP DP  RH WIND       PRES   REMARKS
DES MOINES     CLEAR     59  45  59 SW7       30.02F
IOWA CITY      CLEAR     54  42  64 W8        30.00S
FORT DODGE     CLEAR     54  37  54 W6        30.02R
MARSHALLTOWN   CLEAR     53  42  66 W8        29.98F
CEDAR RAPIDS   CLEAR     53  43  68 SW9       29.97F
$$

...NORTHERN ILLINOIS...


CITY           SKY/WX    TMP DP  RH WIND       PRES   REMARKS
CHICAGO-OHARE  CLEAR     59  35  40 SW9       29.93F
CHICAGO-MIDWAY CLEAR     61  35  37 SW9       29.94F
MOLINE         CLEAR     56  41  57 W7        29.98S
ROCKFORD       CLEAR     56  38  50 W9        29.95F
PEORIA         CLEAR     57  43  59 SW6       30.01F
$$

NOTE: "FAIR" INDICATES FEW OR NO CLOUDS BELOW 12,000 FEET WITH NO
SIGNIFICANT WEATHER AND/OR OBSTRUCTIONS TO VISIBILITY. WIND
SPEEDS ARE IN MILES-PER-HOUR.




USA.gov is the U.S. government's official web portal to all federal, state and local government web resources and services.